CW4427 Weather Reports


Display with metric or nautical units.
time (UTC)temp
F
wind
direction
speed
MPH
gust
MPH
rain 1hr
in
rain 24hr
in
rain mn
in
humidity
%
barometer
mb
20260510081903 59 190 0.0 0.0 0.00 0.00 0.00 86 1013.4
20260510081402 59 190 0.0 0.0 0.00 0.00 0.00 86 1013.2
20260510080902 59 190 0.0 0.0 0.00 0.00 0.00 85 1013.3
20260510080402 59 190 0.0 0.0 0.00 0.00 0.00 84 1013.2
20260510075902 59 190 0.0 0.0 0.00 0.00 0.00 85 1013.2
20260510075402 60 190 0.0 0.0 0.00 0.00 0.00 84 1013.2
20260510074902 60 190 0.0 0.0 0.00 0.00 0.00 84 1013.2
20260510073902 60 190 0.0 0.0 0.00 0.00 0.00 84 1013.2
20260510073402 60 190 0.0 0.0 0.00 0.00 0.00 83 1013.2
20260510072902 60 190 0.0 0.0 0.00 0.00 0.00 83 1013.2
20260510072402 60 190 0.0 0.0 0.00 0.00 0.00 83 1013.3
20260510071902 60 190 0.0 0.0 0.00 0.00 0.00 83 1013.2
20260510071402 59 190 0.0 0.0 0.00 0.00 0.00 83 1013.2
20260510070902 59 190 0.0 0.0 0.00 0.00 0.00 82 1013.1
20260510065901 59 190 0.0 0.0 0.00 0.00 0.00 82 1013.2
20260510065402 59 190 0.0 0.0 0.00 0.00 0.00 82 1013.3
20260510064402 59 190 0.0 0.0 0.00 0.00 0.00 83 1013.4
20260510063402 59 190 0.0 0.0 0.00 0.00 0.00 82 1013.2
20260510062902 59 190 0.0 0.0 0.00 0.00 0.00 83 1013.1
20260510062402 59 190 0.0 0.0 0.00 0.00 0.00 82 1012.9
20260510061901 59 190 0.0 0.0 0.00 0.00 0.00 82 1012.8
20260510061402 59 190 0.0 0.0 0.00 0.00 0.00 82 1012.9
20260510060901 59 190 0.0 0.0 0.00 0.00 0.00 82 1012.8
20260510060402 60 190 0.0 0.0 0.00 0.00 0.00 82 1012.7
20260510055402 60 190 0.0 0.0 0.00 0.00 0.00 81 1012.7
20260510054902 60 190 0.0 0.0 0.00 0.00 0.00 80 1012.7
20260510054401 60 190 0.0 0.0 0.00 0.00 0.00 81 1012.8
20260510053901 60 190 0.0 0.0 0.00 0.00 0.00 81 1012.7
20260510053401 60 190 0.0 0.0 0.00 0.00 0.00 80 1012.7
20260510052902 60 190 0.0 0.0 0.00 0.00 0.00 79 1012.7
20260510052401 60 190 0.0 0.0 0.00 0.00 0.00 81 1012.7
20260510051901 60 190 0.0 0.0 0.00 0.00 0.00 81 1012.7
20260510051402 60 190 0.0 0.0 0.00 0.00 0.00 79 1012.7
20260510050902 60 190 0.0 0.0 0.00 0.00 0.00 79 1012.7
20260510050401 61 190 0.0 0.0 0.00 0.00 0.00 78 1012.7
20260510045901 61 190 0.0 0.0 0.00 0.00 0.00 78 1012.6
20260510045401 61 190 0.0 0.0 0.00 0.00 0.00 77 1012.6
20260510044901 61 190 0.0 0.0 0.00 0.00 0.00 77 1012.6
20260510044402 61 190 0.0 0.0 0.00 0.00 0.00 77 1012.6
20260510043901 62 190 0.0 0.0 0.00 0.00 0.00 77 1012.6
20260510041902 62 190 0.0 0.0 0.00 0.00 0.00 77 1012.7
20260510041401 62 190 0.0 0.0 0.00 0.00 0.00 77 1012.7
20260510040902 62 190 0.0 0.0 0.00 0.00 0.00 77 1012.7
20260510035901 62 190 0.0 0.0 0.00 0.00 0.00 76 1012.8
20260510035402 62 190 0.0 0.0 0.00 0.00 0.00 76 1012.7
20260510034901 62 190 0.0 0.0 0.00 0.00 0.00 76 1012.7
20260510034402 62 190 0.0 0.0 0.00 0.00 0.00 76 1012.8
20260510033901 62 190 0.0 0.0 0.00 0.00 0.00 76 1012.8
20260510033401 62 190 0.0 0.0 0.00 0.00 0.00 75 1012.7
20260510032901 63 190 0.0 1.0 0.00 0.00 0.00 75 1012.7
20260510032401 63 190 0.0 1.0 0.00 0.00 0.00 75 1012.9
20260510031901 63 190 0.0 3.0 0.00 0.00 0.00 74 1012.8
20260510031402 63 190 0.0 3.0 0.00 0.00 0.00 74 1012.8
20260510030401 63 79 0.0 0.0 0.00 0.00 0.00 74 1012.8
20260510025901 64 79 0.0 0.0 0.00 0.00 0.00 73 1012.7
20260510024901 64 79 0.0 0.0 0.00 0.00 0.00 72 1012.8
20260510024401 64 79 0.0 0.0 0.00 0.00 0.00 71 1012.7
20260510023401 65 79 0.0 0.0 0.00 0.00 0.00 70 1012.7
20260510022901 65 79 0.0 0.0 0.00 0.00 0.00 70 1012.6
20260510022401 65 79 0.0 0.0 0.00 0.00 0.00 71 1012.5
20260510021401 66 79 0.0 0.0 0.00 0.00 0.00 71 1012.4
20260510020900 66 79 0.0 0.0 0.00 0.00 0.00 70 1012.2
20260510020400 66 79 0.0 0.0 0.00 0.00 0.00 69 1012.1
20260510015900 66 79 0.0 0.0 0.00 0.00 0.00 67 1012.1
20260510014901 67 79 0.0 0.0 0.00 0.00 0.00 68 1012.0
20260510014400 67 79 0.0 0.0 0.00 0.00 0.00 66 1011.8
20260510013401 67 79 0.0 0.0 0.00 0.00 0.00 64 1011.5
20260510012900 68 79 0.0 0.0 0.00 0.00 0.00 65 1011.6
20260510012400 68 79 0.0 0.0 0.00 0.00 0.00 68 1011.4
20260510011900 68 79 0.0 0.0 0.00 0.00 0.00 67 1011.4
20260510010900 69 79 0.0 0.0 0.00 0.00 0.00 62 1011.3
20260510010400 69 79 0.0 0.0 0.00 0.00 0.00 62 1011.2
20260510005900 70 79 0.0 0.0 0.00 0.00 0.00 60 1011.2
20260510004900 71 79 0.0 0.0 0.00 0.00 0.00 58 1011.1
20260510004400 71 79 0.0 0.0 0.00 0.00 0.00 57 1011.0
20260510003900 72 79 0.0 0.0 0.00 0.00 0.00 56 1011.0
20260510002900 72 79 0.0 0.0 0.00 0.00 0.00 57 1010.8
20260510002400 73 79 0.0 0.0 0.00 0.00 0.00 58 1010.7
20260510001900 73 79 0.0 0.0 0.00 0.00 0.00 56 1010.7
20260510001400 74 79 0.0 0.0 0.00 0.00 0.00 57 1010.5
20260510000859 74 79 0.0 0.0 0.00 0.00 0.00 53 1010.5
20260510000359 75 79 0.0 0.0 0.00 0.00 0.00 54 1010.4
20260509235900 75 79 0.0 0.0 0.00 0.00 0.00 51 1010.3
20260509235359 76 79 0.0 0.0 0.00 0.00 0.00 52 1010.3
20260509234859 77 79 0.0 0.0 0.00 0.00 0.00 51 1010.3
20260509234359 77 79 0.0 0.0 0.00 0.00 0.00 49 1010.3
20260509233900 77 79 0.0 0.0 0.00 0.00 0.00 48 1010.2
20260509233400 77 79 0.0 0.0 0.00 0.00 0.00 49 1010.2
20260509231859 79 79 0.0 2.0 0.00 0.00 0.00 38 1010.1
20260509231359 80 79 0.0 3.0 0.00 0.00 0.00 41 1010.1
20260509230859 80 76 1.0 5.0 0.00 0.00 0.00 41 1010.1
20260509230359 80 86 2.0 5.0 0.00 0.00 0.00 38 1010.0
20260509225859 81 92 0.0 3.0 0.00 0.00 0.00 37 1010.0
20260509225359 81 75 0.0 2.0 0.00 0.00 0.00 41 1009.9
20260509224859 81 75 0.0 4.0 0.00 0.00 0.00 34 1009.8
20260509224359 81 90 2.0 4.0 0.00 0.00 0.00 40 1009.9
20260509223859 82 109 3.0 7.0 0.00 0.00 0.00 37 1009.9
20260509223359 81 55 1.0 7.0 0.00 0.00 0.00 37 1009.9
20260509222359 82 107 1.0 6.0 0.00 0.00 0.00 39 1009.9
20260509221859 83 117 2.0 6.0 0.00 0.00 0.00 37 1010.0
20260509221359 82 34 2.0 3.0 0.00 0.00 0.00 36 1010.0
20260509220859 82 38 0.0 3.0 0.00 0.00 0.00 33 1010.1
20260509220359 82 215 0.0 2.0 0.00 0.00 0.00 36 1010.0
20260509215859 83 284 0.0 2.0 0.00 0.00 0.00 33 1010.0
20260509215359 82 355 0.0 4.0 0.00 0.00 0.00 33 1010.0
20260509213358 84 18 2.0 4.0 0.00 0.00 0.00 31 1010.1
20260509212859 84 336 1.0 5.0 0.00 0.00 0.00 33 1010.1
20260509212358 84 345 1.0 5.0 0.00 0.00 0.00 34 1010.2
20260509211858 83 20 4.0 4.0 0.00 0.00 0.00 33 1010.2
20260509211358 83 298 0.0 8.0 0.00 0.00 0.00 32 1010.3
20260509210858 83 360 2.0 8.0 0.00 0.00 0.00 32 1010.3
20260509210359 83 103 3.0 6.0 0.00 0.00 0.00 31 1010.3
20260509205358 83 344 2.0 5.0 0.00 0.00 0.00 31 1010.2
20260509204858 83 347 2.0 5.0 0.00 0.00 0.00 33 1010.3
20260509204358 83 5 2.0 4.0 0.00 0.00 0.00 31 1010.2
20260509203859 83 355 0.0 7.0 0.00 0.00 0.00 29 1010.3
20260509203358 84 350 0.0 7.0 0.00 0.00 0.00 28 1010.3
20260509202858 84 130 1.0 4.0 0.00 0.00 0.00 33 1010.3
20260509202358 84 340 0.0 4.0 0.00 0.00 0.00 35 1010.4
20260509201358 83 45 2.0 7.0 0.00 0.00 0.00 32 1010.5
20260509200358 83 360 2.0 5.0 0.00 0.00 0.00 35 1010.5
20260509195358 83 212 3.0 8.0 0.00 0.00 0.00 39 1010.6
20260509194858 82 189 5.0 9.0 0.00 0.00 0.00 38 1010.7
20260509194358 81 109 0.0 9.0 0.00 0.00 0.00 37 1010.8
20260509193858 82 53 1.0 7.0 0.00 0.00 0.00 40 1010.7
20260509193358 82 69 1.0 6.0 0.00 0.00 0.00 40 1010.7
20260509192357 83 273 2.0 4.0 0.00 0.00 0.00 40 1010.7
20260509191857 82 5 0.0 4.0 0.00 0.00 0.00 39 1010.8
20260509191358 82 80 0.0 6.0 0.00 0.00 0.00 37 1010.8
20260509190857 85 288 2.0 6.0 0.00 0.00 0.00 41 1010.9
20260509185858 80 103 0.0 6.0 0.00 0.00 0.00 40 1010.8
20260509185358 80 149 3.0 9.0 0.00 0.00 0.00 41 1010.8
20260509184858 81 5 1.0 9.0 0.00 0.00 0.00 39 1010.8
20260509184357 81 18 4.0 5.0 0.00 0.00 0.00 41 1011.0
20260509183357 81 277 2.0 4.0 0.00 0.00 0.00 47 1011.2
20260509182857 80 96 0.0 3.0 0.00 0.00 0.00 45 1011.1
20260509181857 80 117 1.0 9.0 0.00 0.00 0.00 46 1011.3
20260509181357 80 336 1.0 9.0 0.00 0.00 0.00 43 1011.3
20260509180358 81 238 0.0 5.0 0.00 0.00 0.00 46 1011.5
20260509175857 80 134 3.0 5.0 0.00 0.00 0.00 49 1011.4
20260509175357 81 346 2.0 7.0 0.00 0.00 0.00 49 1011.5
20260509174857 82 212 2.0 7.0 0.00 0.00 0.00 50 1011.5
20260509174357 80 263 3.0 7.0 0.00 0.00 0.00 55 1011.5
20260509173857 79 103 2.0 6.0 0.00 0.00 0.00 49 1011.4
20260509173357 79 35 5.0 6.0 0.00 0.00 0.00 50 1011.4
20260509172857 79 355 0.0 4.0 0.00 0.00 0.00 48 1011.4
20260509172357 79 84 2.0 7.0 0.00 0.00 0.00 48 1011.4
20260509171857 78 287 3.0 7.0 0.00 0.00 0.00 46 1011.4
20260509171357 78 167 0.0 7.0 0.00 0.00 0.00 48 1011.3
20260509170857 78 15 4.0 8.0 0.00 0.00 0.00 49 1011.4
20260509170357 78 24 4.0 8.0 0.00 0.00 0.00 50 1011.5
20260509165357 78 360 2.0 5.0 0.00 0.00 0.00 50 1011.4
20260509164857 78 102 2.0 6.0 0.00 0.00 0.00 51 1011.5
20260509164357 78 355 2.0 6.0 0.00 0.00 0.00 53 1011.5
20260509163856 79 205 0.0 6.0 0.00 0.00 0.00 55 1011.6
20260509163356 79 238 1.0 6.0 0.00 0.00 0.00 58 1011.5
20260509162856 78 33 3.0 6.0 0.00 0.00 0.00 54 1011.4
20260509162357 77 176 0.0 6.0 0.00 0.00 0.00 58 1011.5
20260509161856 77 22 4.0 6.0 0.00 0.00 0.00 54 1011.5
20260509161356 77 5 4.0 5.0 0.00 0.00 0.00 51 1011.4
20260509160856 78 304 1.0 6.0 0.00 0.00 0.00 57 1011.3
20260509160356 77 301 3.0 6.0 0.00 0.00 0.00 56 1011.2
20260509155856 77 246 0.0 6.0 0.00 0.00 0.00 56 1011.3
20260509155356 78 311 2.0 5.0 0.00 0.00 0.00 56 1011.2
20260509154856 76 279 2.0 7.0 0.00 0.00 0.00 61 1011.1
20260509154356 76 42 4.0 7.0 0.00 0.00 0.00 59 1011.1
20260509153356 75 306 2.0 5.0 0.00 0.00 0.00 60 1011.0
20260509152856 75 45 3.0 6.0 0.00 0.00 0.00 60 1011.0
20260509152356 76 37 1.0 6.0 0.00 0.00 0.00 60 1010.9
20260509151856 76 235 0.0 6.0 0.00 0.00 0.00 60 1011.0
20260509150856 76 239 1.0 6.0 0.00 0.00 0.00 63 1011.0
20260509145856 75 300 1.0 7.0 0.00 0.00 0.00 65 1011.1
20260509145356 75 63 1.0 7.0 0.00 0.00 0.00 66 1011.1
20260509144856 75 225 3.0 4.0 0.00 0.00 0.00 68 1011.1
20260509144356 73 345 1.0 5.0 0.00 0.00 0.00 65 1011.1
20260509143856 73 255 1.0 6.0 0.00 0.00 0.00 67 1011.2
20260509143356 73 308 0.0 6.0 0.00 0.00 0.00 66 1011.1
20260509142856 74 281 2.0 6.0 0.00 0.00 0.00 70 1011.1
20260509142356 74 315 1.0 4.0 0.00 0.00 0.00 67 1011.1
20260509141856 73 285 2.0 4.0 0.00 0.00 0.00 71 1011.1
20260509141356 72 325 2.0 4.0 0.00 0.00 0.00 70 1011.2
20260509140356 72 315 1.0 7.0 0.00 0.00 0.00 71 1011.1
20260509134855 70 315 0.0 4.0 0.00 0.00 0.00 72 1011.1
20260509134355 71 9 3.0 4.0 0.00 0.00 0.00 73 1011.1
20260509133855 70 286 1.0 4.0 0.00 0.00 0.00 72 1011.1
20260509133355 70 235 2.0 4.0 0.00 0.00 0.00 75 1011.0
20260509132855 70 315 0.0 3.0 0.00 0.00 0.00 75 1011.0
20260509132356 69 290 1.0 3.0 0.00 0.00 0.00 77 1010.9
20260509131355 68 280 0.0 2.0 0.00 0.00 0.00 79 1011.0
20260509130355 67 254 0.0 3.0 0.00 0.00 0.00 79 1010.8
20260509125855 66 265 0.0 0.0 0.00 0.00 0.00 81 1010.8
20260509125355 65 176 0.0 0.0 0.00 0.00 0.00 82 1010.8
20260509124355 65 176 0.0 4.0 0.00 0.00 0.00 82 1010.7
20260509123855 64 165 0.0 3.0 0.00 0.00 0.00 82 1010.7
20260509123356 64 165 0.0 3.0 0.00 0.00 0.00 85 1010.6
20260509122355 63 262 0.0 5.0 0.00 0.00 0.00 86 1010.5
20260509121855 62 177 2.0 5.0 0.00 0.00 0.00 86 1010.4
20260509121355 62 200 2.0 4.0 0.00 0.00 0.00 87 1010.4
20260509120855 61 150 1.0 4.0 0.00 0.00 0.00 88 1010.4
20260509120355 61 192 2.0 4.0 0.00 0.00 0.00 89 1010.4
20260509115855 60 175 2.0 5.0 0.00 0.00 0.00 89 1010.4
20260509115355 60 183 2.0 6.0 0.00 0.00 0.00 90 1010.3
20260509114855 59 203 1.0 6.0 0.00 0.00 0.00 90 1010.2
20260509113855 59 238 4.0 6.0 0.00 0.00 0.00 89 1010.3
20260509113355 59 196 4.0 6.0 0.00 0.00 0.00 90 1010.2
20260509112855 59 214 3.0 5.0 0.00 0.00 0.00 89 1010.2
20260509112355 59 209 0.0 4.0 0.00 0.00 0.00 90 1010.0
20260509111855 59 205 2.0 5.0 0.00 0.00 0.00 90 1009.8
20260509110854 59 180 3.0 7.0 0.00 0.00 0.00 90 1009.7
20260509110355 59 194 3.0 7.0 0.00 0.00 0.00 90 1009.4
20260509105854 59 180 4.0 5.0 0.00 0.00 0.00 89 1009.4
20260509105354 59 190 3.0 4.0 0.00 0.00 0.00 89 1009.5
20260509104854 59 249 1.0 4.0 0.00 0.00 0.00 89 1009.7
20260509104354 59 198 0.0 2.0 0.00 0.00 0.00 89 1009.7
20260509103854 59 171 1.0 3.0 0.00 0.00 0.00 89 1009.6
20260509103354 59 207 0.0 4.0 0.00 0.00 0.00 89 1009.6
20260509102854 59 207 3.0 6.0 0.00 0.00 0.00 89 1009.5
20260509102354 59 194 1.0 6.0 0.00 0.00 0.00 89 1009.6
20260509101854 58 205 1.0 5.0 0.00 0.00 0.00 89 1009.7
20260509101354 58 191 2.0 4.0 0.00 0.00 0.00 89 1009.6
20260509100854 58 182 2.0 4.0 0.00 0.00 0.00 90 1009.7
20260509100353 58 187 1.0 5.0 0.00 0.00 0.00 90 1009.6
20260509095854 58 186 0.0 5.0 0.00 0.00 0.00 90 1009.8
20260509095353 58 196 3.0 3.0 0.00 0.00 0.00 90 1010.1
20260509094854 58 196 0.0 2.0 0.00 0.00 0.00 90 1010.0
20260509094354 57 196 0.0 0.0 0.00 0.00 0.00 91 1010.2
20260509093853 57 196 0.0 0.0 0.00 0.00 0.00 90 1010.2
20260509093353 57 196 0.0 0.0 0.00 0.00 0.00 90 1010.0
20260509092854 57 196 0.0 0.0 0.00 0.00 0.00 90 1010.1
20260509092354 57 196 0.0 0.0 0.00 0.00 0.00 89 1010.1
20260509091353 57 196 0.0 0.0 0.00 0.00 0.00 89 1009.8
20260509090353 58 196 0.0 0.0 0.00 0.00 0.00 88 1009.6
20260509085853 58 196 0.0 0.0 0.00 0.00 0.00 87 1009.7
20260509085353 58 196 0.0 0.0 0.00 0.00 0.00 87 1009.6
20260509084853 59 196 0.0 0.0 0.00 0.00 0.00 87 1009.7
20260509083853 59 196 0.0 0.0 0.00 0.00 0.00 86 1009.8
20260509083353 59 196 0.0 0.0 0.00 0.00 0.00 86 1009.7
20260509082853 59 196 0.0 0.0 0.00 0.00 0.00 84 1009.6
20260509082353 60 196 0.0 0.0 0.00 0.00 0.00 84 1009.6